HVDC transfer

From www.emi.ea.govt.nz provided by the Electricity Authority (New Zealand)
Run at: 20240506001122

Parameters
Date range,21 Jun 2021 - 21 Jun 2021
Time scale,Trading period
Show,Average flow (MW)

Period start,Period end,Trading period,Direction,Energy transfer (GWh),Peak flow (MW),Average flow (MW)
21/06/2021 00:00:00,21/06/2021 00:30:00,1,Southward at Benmore,-0.013,-27,-27
21/06/2021 00:30:00,21/06/2021 01:00:00,2,Southward at Benmore,-0.064,-128,-128
21/06/2021 01:00:00,21/06/2021 01:30:00,3,Southward at Benmore,-0.048,-97,-97
21/06/2021 01:30:00,21/06/2021 02:00:00,4,Southward at Benmore,-0.063,-127,-127
21/06/2021 02:00:00,21/06/2021 02:30:00,5,Southward at Benmore,-0.051,-102,-102
21/06/2021 02:30:00,21/06/2021 03:00:00,6,Southward at Benmore,-0.054,-108,-108
21/06/2021 03:00:00,21/06/2021 03:30:00,7,Southward at Benmore,-0.107,-215,-215
21/06/2021 03:30:00,21/06/2021 04:00:00,8,Southward at Benmore,-0.116,-233,-233
21/06/2021 04:00:00,21/06/2021 04:30:00,9,Southward at Benmore,-0.051,-102,-102
21/06/2021 04:30:00,21/06/2021 05:00:00,10,Southward at Benmore,-0.042,-85,-85
21/06/2021 05:00:00,21/06/2021 05:30:00,11,Southward at Benmore,-0.087,-174,-174
21/06/2021 05:30:00,21/06/2021 06:00:00,12,Southward at Benmore,-0.033,-67,-67
21/06/2021 06:00:00,21/06/2021 06:30:00,13,Northward at Haywards,0.054,108,108
21/06/2021 06:30:00,21/06/2021 07:00:00,14,Northward at Haywards,0.100,200,200
21/06/2021 07:00:00,21/06/2021 07:30:00,15,Northward at Haywards,0.137,273,273
21/06/2021 07:30:00,21/06/2021 08:00:00,16,Northward at Haywards,0.190,380,380
21/06/2021 08:00:00,21/06/2021 08:30:00,17,Northward at Haywards,0.178,355,355
21/06/2021 08:30:00,21/06/2021 09:00:00,18,Northward at Haywards,0.177,354,354
21/06/2021 09:00:00,21/06/2021 09:30:00,19,Northward at Haywards,0.182,363,363
21/06/2021 09:30:00,21/06/2021 10:00:00,20,Northward at Haywards,0.195,389,389
21/06/2021 10:00:00,21/06/2021 10:30:00,21,Northward at Haywards,0.172,343,343
21/06/2021 10:30:00,21/06/2021 11:00:00,22,Northward at Haywards,0.176,352,352
21/06/2021 11:00:00,21/06/2021 11:30:00,23,Northward at Haywards,0.179,357,357
21/06/2021 11:30:00,21/06/2021 12:00:00,24,Northward at Haywards,0.183,365,365
21/06/2021 12:00:00,21/06/2021 12:30:00,25,Northward at Haywards,0.187,373,373
21/06/2021 12:30:00,21/06/2021 13:00:00,26,Northward at Haywards,0.188,375,375
21/06/2021 13:00:00,21/06/2021 13:30:00,27,Northward at Haywards,0.194,387,387
21/06/2021 13:30:00,21/06/2021 14:00:00,28,Northward at Haywards,0.178,356,356
21/06/2021 14:00:00,21/06/2021 14:30:00,29,Northward at Haywards,0.173,346,346
21/06/2021 14:30:00,21/06/2021 15:00:00,30,Northward at Haywards,0.178,356,356
21/06/2021 15:00:00,21/06/2021 15:30:00,31,Northward at Haywards,0.181,362,362
21/06/2021 15:30:00,21/06/2021 16:00:00,32,Northward at Haywards,0.174,347,347
21/06/2021 16:00:00,21/06/2021 16:30:00,33,Northward at Haywards,0.158,315,315
21/06/2021 16:30:00,21/06/2021 17:00:00,34,Northward at Haywards,0.168,335,335
21/06/2021 17:00:00,21/06/2021 17:30:00,35,Northward at Haywards,0.176,351,351
21/06/2021 17:30:00,21/06/2021 18:00:00,36,Northward at Haywards,0.167,334,334
21/06/2021 18:00:00,21/06/2021 18:30:00,37,Northward at Haywards,0.127,253,253
21/06/2021 18:30:00,21/06/2021 19:00:00,38,Northward at Haywards,0.125,249,249
21/06/2021 19:00:00,21/06/2021 19:30:00,39,Northward at Haywards,0.151,302,302
21/06/2021 19:30:00,21/06/2021 20:00:00,40,Northward at Haywards,0.122,243,243
21/06/2021 20:00:00,21/06/2021 20:30:00,41,Northward at Haywards,0.075,149,149
21/06/2021 20:30:00,21/06/2021 21:00:00,42,Northward at Haywards,0.075,149,149
21/06/2021 21:00:00,21/06/2021 21:30:00,43,Northward at Haywards,0.064,127,127
21/06/2021 21:30:00,21/06/2021 22:00:00,44,Northward at Haywards,0.053,105,105
21/06/2021 22:30:00,21/06/2021 23:00:00,46,Southward at Benmore,-0.022,-44,-44
21/06/2021 23:00:00,21/06/2021 23:30:00,47,Southward at Benmore,-0.061,-122,-122
21/06/2021 23:30:00,22/06/2021 00:00:00,48,Southward at Benmore,-0.046,-92,-92
